Washington, VA

5:27 PM EDT on October 23, 2017 (GMT -0400)
Ronald Reagan Washington National

Weather History for KDCA - June, 2013

Change the Weather History Date:

Thursday, June 20, 2013

  Actual Average Record
Temperature  
Mean Temperature 73 °F 77 °F  
Max Temperature 80 °F 86 °F 99 °F (1931)
Min Temperature 66 °F 68 °F 54 °F (1926)
Degree Days  
Heating Degree Days 0 0  
Month to date heating degree days 0 5  
Since 1 June heating degree days 0 5  
Since 1 July heating degree days 3765 4030  
Cooling Degree Days 8 12  
Month to date cooling degree days 206 184  
Year to date cooling degree days 391 318  
Since 1 June cooling degree days 206 184  
Growing Degree Days 23 (Base 50)    
Moisture  
Dew Point 59 °F    
Average Humidity 68    
Maximum Humidity 87    
Minimum Humidity 48    
Precipitation  
Precipitation 0.00 in 0.12 in 2.37 in (2015)
Month to date precipitation 6.11 2.52  
Year to date precipitation 18.69 18.48  
Snow  
Snow 0.00 in 0.00 in - ()
Month to date snowfall 0.0 0.0  
Since 1 July snowfall 3.1 15.4  
Snow Depth 0.00 in    
Sea Level Pressure  
Sea Level Pressure 30.24 in    
Wind  
Wind Speed 8 mph (South)    
Max Wind Speed 14 mph    
Max Gust Speed 18 mph    
Visibility 10 miles    
Events      
T = Trace of Precipitation, MM = Missing Value Source: NWS Daily Summary

Daily Weather History Graph

Daily Weather History Graph

Search for Another Location

Airport or City:

Trip Planner

Search our weather history database for the weather conditions in past years. The results will help you decide how hot, cold, wet, or windy it might be!

Date:

Astronomy

Jun. 20, 2013 Rise Set
Actual Time 5:43 AM EDT 8:36 PM EDT
Civil Twilight 5:10 AM EDT 9:08 PM EDT
Nautical Twilight 4:30 AM EDT 9:49 PM EDT
Astronomical Twilight 3:44 AM EDT 10:35 PM EDT
Moon 5:37 PM EDT (6/20) 3:06 AM EDT (6/20)
Length of Visible Light 15h 57m
Length of Day
14h 53m
Waxing Gibbous, 89% of the Moon is Illuminated
Jun 20
Waxing Gibbous
Jun 23
Full
Jun 30
Last Quarter
Jul 8
New
Jul 15
First Quarter

Hourly Weather History & Observations

Time (EDT) Temp. Dew Point Humidity Pressure Visibility Wind Dir Wind Speed Gust Speed Precip Events Conditions
12:52 AM 66.9 °F 60.1 °F 79% 30.18 in 10.0 mi SSE 4.6 mph - N/A   Clear
1:52 AM 68.0 °F 62.1 °F 81% 30.19 in 10.0 mi South 6.9 mph - N/A   Partly Cloudy
2:52 AM 66.9 °F 63.0 °F 87% 30.19 in 10.0 mi South 8.1 mph - N/A   Scattered Clouds
3:52 AM 66.9 °F 62.1 °F 84% 30.19 in 10.0 mi SSE 6.9 mph - N/A   Partly Cloudy
4:52 AM 66.0 °F 62.1 °F 87% 30.21 in 10.0 mi SSE 4.6 mph - N/A   Scattered Clouds
4:59 AM 66.2 °F 62.6 °F 88% 30.21 in 10.0 mi SSE 4.6 mph - N/A   Mostly Cloudy
5:35 AM 66.2 °F 62.6 °F 88% 30.22 in 10.0 mi South 3.5 mph - N/A   Scattered Clouds
5:52 AM 66.0 °F 62.1 °F 87% 30.23 in 10.0 mi South 3.5 mph - N/A   Scattered Clouds
6:52 AM 66.9 °F 62.1 °F 84% 30.24 in 10.0 mi SSE 3.5 mph - N/A   Scattered Clouds
7:52 AM 69.1 °F 62.1 °F 78% 30.25 in 10.0 mi South 5.8 mph - N/A   Scattered Clouds
8:52 AM 70.0 °F 60.1 °F 71% 30.27 in 10.0 mi South 6.9 mph - N/A   Scattered Clouds
9:37 AM 73.4 °F 60.8 °F 65% 30.28 in 10.0 mi SSE 8.1 mph - N/A   Mostly Cloudy
9:52 AM 72.0 °F 59.0 °F 64% 30.27 in 10.0 mi SSE 8.1 mph - N/A   Mostly Cloudy
10:52 AM 75.0 °F 60.1 °F 60% 30.28 in 10.0 mi SSE 6.9 mph - N/A   Mostly Cloudy
11:52 AM 77.0 °F 61.0 °F 58% 30.28 in 10.0 mi South 8.1 mph - N/A   Mostly Cloudy
12:52 PM 78.1 °F 59.0 °F 52% 30.28 in 10.0 mi South 9.2 mph - N/A   Mostly Cloudy
1:52 PM 79.0 °F 57.9 °F 48% 30.26 in 10.0 mi South 5.8 mph - N/A   Mostly Cloudy
2:52 PM 78.1 °F 57.0 °F 48% 30.26 in 10.0 mi SSW 8.1 mph - N/A   Overcast
3:52 PM 79.0 °F 59.0 °F 50% 30.25 in 10.0 mi South 10.4 mph - N/A   Mostly Cloudy
4:52 PM 78.1 °F 57.0 °F 48% 30.24 in 10.0 mi South 9.2 mph - N/A   Mostly Cloudy
5:52 PM 79.0 °F 57.0 °F 47% 30.24 in 10.0 mi South 10.4 mph - N/A   Mostly Cloudy
6:52 PM 79.0 °F 57.0 °F 47% 30.25 in 10.0 mi SSE 10.4 mph 18.4 mph N/A   Mostly Cloudy
7:52 PM 75.9 °F 57.0 °F 52% 30.25 in 10.0 mi SSE 6.9 mph - N/A   Mostly Cloudy
8:52 PM 73.0 °F 57.0 °F 57% 30.26 in 10.0 mi South 9.2 mph - N/A   Mostly Cloudy
9:52 PM 72.0 °F 55.0 °F 55% 30.27 in 10.0 mi South 10.4 mph - N/A   Mostly Cloudy
10:52 PM 70.0 °F 51.1 °F 51% 30.28 in 10.0 mi South 10.4 mph - N/A   Mostly Cloudy
11:52 PM 69.1 °F 52.0 °F 54% 30.28 in 10.0 mi South 9.2 mph - N/A   Mostly Cloudy